SCP
0 0 0 0 0 0 0 0 0 0 0 0 0 0 0 0 0 0 0 0 0 0 0 0 0 0 0 0 0 0 0 -0 -0 -0 -0 -0 -0 -0 -0 -0 -0 -0 -0
0 0 0 0 0 0 0 0 0 0 0 0 0 0 0 0 0 0 0 0 0 0 0 0 0 0 -0 -0 -0 -0 -0 -0 -0 -0 -0 -0 -0 -0 -0 -0 -0 -0 -0
0 0 0 0 0 0 0 0 0 0 0 0 0 0 0 0 0 0 0 0 0 0 0 0 0 -0 -0 -0 -0 -0 -0 -0 -0 -0 -0 -0 -0 -0 -0 -0 -0 -0 0
0 0 0 0 0 0 0 0 0 0 0 0 0 0 0 0 0 0 0 0 0 0 0 0 0 -0 -0 -0 -0 -0 -0 -0 -0 -0 -0 -0 -0 -0 -0 -0 0 0 0
0 0 0 0 0 0 0 0 0 0 0 0 0 0 0 0 0 0 0 0 0 0 -0 -0 -0 0 -0 -0 -0 -0 -0 -0 -0 -0 -0 -0 -0 -0 0 0 0 0 0
0 0 0 0 0 0 0 0 0 0 0 0 0 0 0 0 0 0 0 0 0 0 -0 -0 0 0 -0 -0 -0 -0 -0 -0 -0 -0 -0 -0 -0 0 0 0 0 0 0
0 0 0 0 0 0 0 0 0 0 0 0 0 0 0 0 0 0 0 0 0 0 0 0 0 0 0 -0 -0 -0 -0 -0 -0 -0 0 0 0 0 0 0 0 0 0
0 0 0 0 0 0 0 0 0 0 0 0 0 0 0 0 0 0 0 0 0 0 0 0 0 0 0 0 0 0 0 0 0 0 0 0 0 0 0 0 0 0 0
0 0 0 0 0 0 0 0 0 0 0 0 0 0 0 0 0 0 0 0 0 0 0 0 0 0 0 0 0 0 0 0 0 0 0 0 0 0 0 0 0 0 0
0 0 0 0 0 0 0 0 0 0 0 0 0 0 0 0 0 0 0 0 0 0 0 0 0 0 0 0 0 0 0 0 0 0 0 0 0 0 0 0 0 0 0
0 0 0 0 0 0 0 0 0 0 0 0 0 0 0 0 0 0 0 0 0 0 0 0 0 0 0 0 0 0 0 0 0 0 0 0 0 0 0 0 0 0 0
0 0 0 0 0 0 0 0 0 0 0 0 0 0 0 0 0 0 0 0 0 0 0 0 0 0 0 0 0 0 0 0 0 0 0 0 0 0 0 0 0 0 0
0 0 0 0 0 0 0 0 0 0 0 0 0 0 0 0 0 0 0 0 0 0 0 0 0 0 0 0 0 0 0 0 0 0 0 0 0 0 0 0 0 0 0
0 0 0 0 0 0 0 0 0 0 0 0 0 0 0 0 0 0 0 0 0 0 0 0 0 0 0 0 0 0 0 0 0 0 0 0 0 0 0 0 0 0 0
0 0 0 0 0 0 0 0 0 0 0 0 0 0 0 0 0 0 0 0 0 0 0 0 0 0 0 0 0 0 0 0 0 0 0 0 0 0 0 0 0 0 0
0 0 0 0 0 0 0 0 0 0 0 0 0 0 0 0 0 0 0 0 0 0 0 0 0 0 0 0 0 0 0 0 0 0 0 0 0 0 0 0 0 0 0
0 0 0 0 0 0 0 0 0 0 0 0 0 0 0 0 0 0 0 0 0 0 0 0 0 0 0 0 0 0 0 0 0 0 0 0 0 0 0 0 0 0 0
0 0 0 0 0 0 0 0 0 0 0 0 0 0 0 0 0 0 0 0 0 0 0 0 0 0 0 0 0 0 0 0 0 0 0 0 0 0 0 0 0 0 0
0 0 0 0 0 0 0 0 0 0 0 0 0 0 0 0 0 0 0 0 0 0 0 0 0 0 0 0 0 0 0 0 0 0 0 0 0 0 0 0 0 0 0
0 0 0 0 0 0 0 0 0 0 0 0 0 0 0 0 0 0 0 0 0 0 0 0 0 0 0 0 0 0 0 0 0 0 0 0 0 0 0 0 0 0 0
0 0 0 0 0 0 0 0 0 0 0 0 0 0 0 0 0 0 0 0 0 0 0 0 0 0 0 0 0 0 0 0 0 0 0 0 0 0 0 0 0 0 0
0 0 0 0 0 0 0 0 0 0 0 0 0 0 0 0 0 0 0 0 0 0 0 0 0 0 0 0 0 0 0 0 0 0 0 0 0 0 0 0 0 0 0
0 0 0 0 0 0 0 0 0 0 0 0 0 0 0 0 0 0 0 0 0 0 0 0 0 0 0 0 0 0 0 0 0 0 0 0 0 0 0 0 0 0 0
0 0 0 0 0 0 0 0 0 0 0 0 0 0 0 0 0 0 0 0 0 0 0 0 0 0 0 0 0 0 0 0 0 0 0 0 0 0 0 0 0 0 0
0 0 0 0 0 0 0 0 0 0 0 0 0 0 0 0 0 0 0 0 0 0 0 0 0 0 0 0 0 0 0 0 0 0 0 0 0 0 0 0 0 0 0
0 0 0 0 0 0 0 0 0 0 0 0 0 0 0 0 0 0 0 0 0 0 0 0 0 0 0 0 0 0 0 0 0 0 0 0 0 0 0 0 0 0 0
Wind_Speed_500mb
64 63 57 52 50 51 48 47 43 39 35 35 36 33 31 28 29 29 29 29 29 23 23 19 19 21 28 33 36 39 40 38 37 39 40 38 34 26 22 21 18 16 14
66 63 57 54 53 53 51 48 45 41 38 38 38 35 30 28 27 25 25 24 23 25 21 17 20 24 28 34 39 40 42 40 42 38 30 28 22 18 13 11 12 15 14
65 63 60 58 57 56 52 50 46 43 42 41 39 36 31 28 23 24 23 23 22 20 21 24 29 34 34 39 43 41 38 38 34 26 23 19 12 8 9 12 15 16 18
66 65 63 61 61 59 55 51 49 48 45 43 40 35 32 23 23 25 23 22 20 20 23 29 18 31 42 45 42 34 31 30 24 18 13 8 6 5 8 14 17 16 16
68 68 66 65 64 62 57 55 53 48 48 44 41 38 31 24 26 25 24 25 25 26 24 36 27 44 39 39 31 26 30 24 19 13 7 4 6 8 11 14 17 18 19
72 71 68 70 68 64 62 58 54 53 46 42 43 35 25 23 24 23 20 18 20 27 34 34 41 53 45 34 33 32 28 23 17 12 7 5 5 9 13 18 18 18 11
73 71 70 74 71 68 63 60 60 54 50 48 47 34 29 23 27 23 14 21 26 35 36 41 71 52 43 31 28 30 22 16 12 10 7 2 3 7 11 13 16 15 12
76 71 73 76 75 72 67 65 65 62 57 56 49 48 30 30 29 24 24 29 26 23 43 64 44 41 35 33 31 24 18 15 14 10 6 5 1 6 9 12 14 14 11
79 72 81 79 79 75 71 68 68 68 68 62 57 41 33 19 41 42 41 53 47 56 53 44 40 35 32 28 26 23 19 14 13 11 6 4 3 4 4 7 12 13 11
83 82 81 82 78 80 75 71 71 71 69 69 72 53 44 43 45 36 50 47 47 48 47 47 40 34 29 24 21 17 15 16 13 11 10 9 6 7 5 5 8 8 7
87 87 86 84 82 84 80 76 79 79 74 75 76 70 54 40 58 65 66 61 56 49 51 44 37 31 27 27 23 23 23 19 13 18 13 11 8 4 3 9 6 5 4
95 92 89 91 88 86 84 83 84 82 79 79 75 75 66 55 63 60 74 70 66 58 53 50 44 38 34 34 30 27 28 21 18 19 20 20 18 16 9 13 15 9 7
101 100 96 95 97 96 93 85 90 90 86 84 80 80 67 55 54 57 73 85 71 66 59 55 53 46 42 38 36 32 36 29 25 28 26 23 25 24 17 16 20 20 15
109 103 102 101 103 103 95 88 93 92 89 88 84 86 72 64 58 60 70 81 75 75 74 72 69 60 53 49 44 40 36 30 30 34 31 36 36 34 28 28 24 22 21
112 110 106 107 107 107 104 94 96 96 95 93 90 88 79 72 66 67 66 65 71 74 83 78 73 69 65 61 55 49 45 41 39 34 45 43 42 35 31 32 28 26 24
104 111 111 111 110 109 106 100 100 98 99 97 96 94 92 79 75 73 73 74 70 67 61 62 71 68 65 68 67 61 53 51 49 45 45 48 37 35 35 35 32 30 27
94 108 105 112 114 114 109 106 104 103 102 100 103 102 98 93 85 80 75 72 75 71 67 55 51 69 69 66 70 68 65 61 58 54 50 49 47 42 39 37 34 32 29
96 100 111 112 118 116 111 108 108 109 106 106 105 108 107 102 99 90 84 80 76 74 71 69 60 58 66 69 68 70 70 66 64 63 57 52 51 49 45 41 37 34 32
77 101 107 99 111 117 113 109 107 110 112 109 109 110 111 114 108 103 97 91 85 81 78 76 71 64 64 67 72 74 75 71 68 67 60 57 56 54 50 46 42 39 37
70 97 95 105 108 118 112 101 99 106 111 110 111 112 113 119 116 111 107 102 97 95 90 84 79 73 69 71 75 76 79 81 77 72 64 66 57 56 52 47 46 41 39
76 87 97 90 115 118 125 117 112 101 114 111 112 113 114 116 117 116 114 112 110 106 101 97 91 86 76 81 84 82 84 78 74 70 69 71 64 50 49 50 48 42 41
70 75 87 93 86 116 97 119 138 127 111 112 107 110 117 115 122 124 118 121 121 113 107 103 91 93 89 92 83 83 85 83 80 81 75 71 60 57 53 52 47 45 43
64 68 80 83 89 101 91 98 119 126 125 118 118 113 107 122 132 132 124 96 89 79 93 96 111 109 103 95 85 88 88 89 88 80 76 75 69 65 58 53 50 47 44
61 67 72 74 77 83 88 97 92 98 117 121 118 120 119 111 112 105 86 79 81 97 95 105 100 102 92 93 88 85 82 81 79 79 70 66 71 71 59 55 51 50 47
64 76 72 75 73 89 81 87 93 107 122 116 113 122 116 117 96 111 100 107 116 106 104 105 97 89 90 93 84 76 84 81 83 83 78 74 67 65 64 64 58 54 52
61 63 72 77 78 80 89 90 84 91 101 111 110 115 110 120 121 122 127 136 121 111 110 110 105 100 97 94 93 82 82 83 87 83 87 82 77 69 60 63 57 57 54
Wind_Direction_500mb
185 186 185 183 180 180 183 181 179 177 175 171 171 173 165 163 156 158 157 156 153 161 160 159 147 140 132 133 137 136 129 129 124 131 119 114 114 109 97 87 72 59 37
190 188 187 183 184 183 184 184 183 183 182 177 175 171 168 169 164 169 172 172 175 176 186 185 167 150 145 145 140 137 135 135 134 130 124 122 114 103 78 57 40 30 12
196 193 188 186 185 183 187 187 186 186 182 178 179 174 176 176 177 183 184 188 182 186 186 183 176 155 152 151 146 145 142 141 142 136 135 123 106 70 40 14 13 8 357
201 196 192 188 185 186 189 189 186 181 182 180 182 183 183 194 193 189 188 197 200 203 190 187 200 171 158 154 153 153 152 149 143 142 140 131 99 43 18 11 5 353 346
202 201 194 190 189 189 188 188 187 192 186 186 190 192 196 201 194 198 199 210 203 209 195 200 184 153 163 160 155 161 157 153 148 153 158 114 79 41 15 7 1 357 360
203 200 197 196 192 192 190 193 196 189 197 201 191 191 189 190 196 196 199 205 199 192 177 177 163 169 167 166 166 163 163 165 163 161 154 127 59 24 10 9 5 6 13
205 203 203 200 197 197 197 197 196 203 197 197 193 163 153 158 156 162 162 168 170 171 182 172 162 170 172 170 168 169 172 177 182 176 164 129 46 28 19 23 20 20 28
207 209 208 207 204 200 202 204 206 201 200 192 187 171 143 150 163 162 171 162 156 158 185 166 167 171 173 171 172 178 185 192 192 198 207 196 350 14 23 24 23 19 35
213 214 212 212 209 207 208 210 211 210 200 197 190 177 154 171 164 168 167 161 162 167 165 174 177 174 177 180 182 188 191 187 208 220 218 244 276 308 31 31 22 9 15
215 216 217 217 215 214 213 215 213 212 212 203 194 195 187 191 172 174 175 179 183 181 174 177 181 184 182 194 203 206 206 200 213 240 233 267 295 313 340 24 16 8 350
217 218 219 221 218 220 220 217 214 212 214 212 207 199 200 197 193 179 181 181 182 193 188 185 191 195 203 205 216 226 225 221 222 190 195 190 197 219 227 329 357 337 308
215 219 221 223 221 221 224 223 218 217 217 216 215 208 210 206 198 194 183 183 182 187 198 201 210 223 223 225 223 226 232 239 230 198 208 211 203 193 223 293 309 316 311
218 219 219 221 223 224 226 228 218 218 218 218 215 210 214 221 214 205 193 185 187 194 202 216 226 231 230 232 230 230 236 232 232 206 195 222 222 218 227 252 290 307 308
222 221 220 221 224 224 229 227 220 220 220 219 218 216 218 216 218 216 205 197 195 204 214 222 227 232 230 233 237 238 241 251 233 224 197 216 222 237 244 266 282 291 292
228 226 223 222 224 228 229 225 223 221 221 221 220 217 220 219 220 220 224 225 225 220 225 226 229 233 234 235 235 235 243 246 251 229 217 229 233 255 258 265 272 272 278
233 234 226 226 227 227 228 225 224 224 224 223 221 218 220 221 223 222 226 231 235 238 242 242 238 240 238 236 238 240 242 245 247 250 236 244 249 251 251 256 263 268 274
249 232 239 232 230 228 228 226 226 226 225 225 223 221 222 222 224 225 227 228 231 235 239 243 239 238 239 238 239 239 240 242 246 247 251 245 247 252 253 254 256 260 263
240 229 242 247 234 232 229 229 228 228 227 226 225 224 224 225 226 227 228 230 233 235 236 239 241 239 238 239 239 238 237 240 243 246 248 249 245 249 253 253 251 252 256
249 242 241 240 234 237 235 232 232 232 230 228 229 227 226 227 227 227 228 230 231 234 236 240 242 244 245 241 236 234 233 236 239 243 247 246 241 245 245 247 246 248 254
259 241 239 233 241 242 235 237 236 235 235 234 233 232 231 231 231 231 231 232 232 232 230 231 237 246 251 243 237 236 232 232 234 238 241 244 242 239 239 244 247 248 252
244 248 245 245 232 239 240 238 241 238 236 235 235 238 238 237 235 235 236 236 235 233 230 227 228 234 244 239 238 236 233 234 235 240 239 241 240 244 242 244 248 250 253
238 240 239 246 247 234 232 237 239 240 237 237 236 240 239 240 239 237 238 238 240 234 235 231 232 240 242 242 240 236 232 225 225 232 232 237 238 242 241 243 247 248 249
256 241 244 242 243 244 250 243 238 234 238 238 243 242 240 244 236 235 237 238 247 248 247 246 239 241 241 242 248 237 235 235 234 232 230 231 233 236 237 242 242 245 247
277 263 250 245 248 249 244 250 247 251 241 240 241 244 248 250 248 245 241 242 257 248 245 243 244 248 252 249 250 250 243 236 235 236 233 234 235 234 235 236 238 243 242
270 270 262 257 249 249 247 251 252 248 247 242 241 243 245 249 235 243 231 241 239 241 246 241 239 242 247 246 243 240 232 229 228 229 229 233 233 231 229 234 237 238 243
277 269 267 265 259 253 255 248 251 253 249 247 249 250 242 240 238 240 233 237 234 242 238 234 234 240 242 241 240 233 235 229 227 227 228 229 231 229 231 235 231 233 242
Wind_Speed_850mb
64 63 57 52 50 51 48 47 43 39 35 35 36 33 31 28 29 29 29 29 29 23 23 19 19 21 28 33 36 39 40 38 37 39 40 38 34 26 22 21 18 16 14
66 63 57 54 53 53 51 48 45 41 38 38 38 35 30 28 27 25 25 24 23 25 21 17 20 24 28 34 39 40 42 40 42 38 30 28 22 18 13 11 12 15 14
65 63 60 58 57 56 52 50 46 43 42 41 39 36 31 28 23 24 23 23 22 20 21 24 29 34 34 39 43 41 38 38 34 26 23 19 12 8 9 12 15 16 18
66 65 63 61 61 59 55 51 49 48 45 43 40 35 32 23 23 25 23 22 20 20 23 29 18 31 42 45 42 34 31 30 24 18 13 8 6 5 8 14 17 16 16
68 68 66 65 64 62 57 55 53 48 48 44 41 38 31 24 26 25 24 25 25 26 24 36 27 44 39 39 31 26 30 24 19 13 7 4 6 8 11 14 17 18 19
72 71 68 70 68 64 62 58 54 53 46 42 43 35 25 23 24 23 20 18 20 27 34 34 41 53 45 34 33 32 28 23 17 12 7 5 5 9 13 18 18 18 11
73 71 70 74 71 68 63 60 60 54 50 48 47 34 29 23 27 23 14 21 26 35 36 41 71 52 43 31 28 30 22 16 12 10 7 2 3 7 11 13 16 15 12
76 71 73 76 75 72 67 65 65 62 57 56 49 48 30 30 29 24 24 29 26 23 43 64 44 41 35 33 31 24 18 15 14 10 6 5 1 6 9 12 14 14 11
79 72 81 79 79 75 71 68 68 68 68 62 57 41 33 19 41 42 41 53 47 56 53 44 40 35 32 28 26 23 19 14 13 11 6 4 3 4 4 7 12 13 11
83 82 81 82 78 80 75 71 71 71 69 69 72 53 44 43 45 36 50 47 47 48 47 47 40 34 29 24 21 17 15 16 13 11 10 9 6 7 5 5 8 8 7
87 87 86 84 82 84 80 76 79 79 74 75 76 70 54 40 58 65 66 61 56 49 51 44 37 31 27 27 23 23 23 19 13 18 13 11 8 4 3 9 6 5 4
95 92 89 91 88 86 84 83 84 82 79 79 75 75 66 55 63 60 74 70 66 58 53 50 44 38 34 34 30 27 28 21 18 19 20 20 18 16 9 13 15 9 7
101 100 96 95 97 96 93 85 90 90 86 84 80 80 67 55 54 57 73 85 71 66 59 55 53 46 42 38 36 32 36 29 25 28 26 23 25 24 17 16 20 20 15
109 103 102 101 103 103 95 88 93 92 89 88 84 86 72 64 58 60 70 81 75 75 74 72 69 60 53 49 44 40 36 30 30 34 31 36 36 34 28 28 24 22 21
112 110 106 107 107 107 104 94 96 96 95 93 90 88 79 72 66 67 66 65 71 74 83 78 73 69 65 61 55 49 45 41 39 34 45 43 42 35 31 32 28 26 24
104 111 111 111 110 109 106 100 100 98 99 97 96 94 92 79 75 73 73 74 70 67 61 62 71 68 65 68 67 61 53 51 49 45 45 48 37 35 35 35 32 30 27
94 108 105 112 114 114 109 106 104 103 102 100 103 102 98 93 85 80 75 72 75 71 67 55 51 69 69 66 70 68 65 61 58 54 50 49 47 42 39 37 34 32 29
96 100 111 112 118 116 111 108 108 109 106 106 105 108 107 102 99 90 84 80 76 74 71 69 60 58 66 69 68 70 70 66 64 63 57 52 51 49 45 41 37 34 32
77 101 107 99 111 117 113 109 107 110 112 109 109 110 111 114 108 103 97 91 85 81 78 76 71 64 64 67 72 74 75 71 68 67 60 57 56 54 50 46 42 39 37
70 97 95 105 108 118 112 101 99 106 111 110 111 112 113 119 116 111 107 102 97 95 90 84 79 73 69 71 75 76 79 81 77 72 64 66 57 56 52 47 46 41 39
76 87 97 90 115 118 125 117 112 101 114 111 112 113 114 116 117 116 114 112 110 106 101 97 91 86 76 81 84 82 84 78 74 70 69 71 64 50 49 50 48 42 41
70 75 87 93 86 116 97 119 138 127 111 112 107 110 117 115 122 124 118 121 121 113 107 103 91 93 89 92 83 83 85 83 80 81 75 71 60 57 53 52 47 45 43
64 68 80 83 89 101 91 98 119 126 125 118 118 113 107 122 132 132 124 96 89 79 93 96 111 109 103 95 85 88 88 89 88 80 76 75 69 65 58 53 50 47 44
61 67 72 74 77 83 88 97 92 98 117 121 118 120 119 111 112 105 86 79 81 97 95 105 100 102 92 93 88 85 82 81 79 79 70 66 71 71 59 55 51 50 47
64 76 72 75 73 89 81 87 93 107 122 116 113 122 116 117 96 111 100 107 116 106 104 105 97 89 90 93 84 76 84 81 83 83 78 74 67 65 64 64 58 54 52
61 63 72 77 78 80 89 90 84 91 101 111 110 115 110 120 121 122 127 136 121 111 110 110 105 100 97 94 93 82 82 83 87 83 87 82 77 69 60 63 57 57 54
Wind_Direction_850mb
185 186 185 183 180 180 183 181 179 177 175 171 171 173 165 163 156 158 157 156 153 161 160 159 147 140 132 133 137 136 129 129 124 131 119 114 114 109 97 87 72 59 37
190 188 187 183 184 183 184 184 183 183 182 177 175 171 168 169 164 169 172 172 175 176 186 185 167 150 145 145 140 137 135 135 134 130 124 122 114 103 78 57 40 30 12
196 193 188 186 185 183 187 187 186 186 182 178 179 174 176 176 177 183 184 188 182 186 186 183 176 155 152 151 146 145 142 141 142 136 135 123 106 70 40 14 13 8 357
201 196 192 188 185 186 189 189 186 181 182 180 182 183 183 194 193 189 188 197 200 203 190 187 200 171 158 154 153 153 152 149 143 142 140 131 99 43 18 11 5 353 346
202 201 194 190 189 189 188 188 187 192 186 186 190 192 196 201 194 198 199 210 203 209 195 200 184 153 163 160 155 161 157 153 148 153 158 114 79 41 15 7 1 357 360
203 200 197 196 192 192 190 193 196 189 197 201 191 191 189 190 196 196 199 205 199 192 177 177 163 169 167 166 166 163 163 165 163 161 154 127 59 24 10 9 5 6 13
205 203 203 200 197 197 197 197 196 203 197 197 193 163 153 158 156 162 162 168 170 171 182 172 162 170 172 170 168 169 172 177 182 176 164 129 46 28 19 23 20 20 28
207 209 208 207 204 200 202 204 206 201 200 192 187 171 143 150 163 162 171 162 156 158 185 166 167 171 173 171 172 178 185 192 192 198 207 196 350 14 23 24 23 19 35
213 214 212 212 209 207 208 210 211 210 200 197 190 177 154 171 164 168 167 161 162 167 165 174 177 174 177 180 182 188 191 187 208 220 218 244 276 308 31 31 22 9 15
215 216 217 217 215 214 213 215 213 212 212 203 194 195 187 191 172 174 175 179 183 181 174 177 181 184 182 194 203 206 206 200 213 240 233 267 295 313 340 24 16 8 350
217 218 219 221 218 220 220 217 214 212 214 212 207 199 200 197 193 179 181 181 182 193 188 185 191 195 203 205 216 226 225 221 222 190 195 190 197 219 227 329 357 337 308
215 219 221 223 221 221 224 223 218 217 217 216 215 208 210 206 198 194 183 183 182 187 198 201 210 223 223 225 223 226 232 239 230 198 208 211 203 193 223 293 309 316 311
218 219 219 221 223 224 226 228 218 218 218 218 215 210 214 221 214 205 193 185 187 194 202 216 226 231 230 232 230 230 236 232 232 206 195 222 222 218 227 252 290 307 308
222 221 220 221 224 224 229 227 220 220 220 219 218 216 218 216 218 216 205 197 195 204 214 222 227 232 230 233 237 238 241 251 233 224 197 216 222 237 244 266 282 291 292
228 226 223 222 224 228 229 225 223 221 221 221 220 217 220 219 220 220 224 225 225 220 225 226 229 233 234 235 235 235 243 246 251 229 217 229 233 255 258 265 272 272 278
233 234 226 226 227 227 228 225 224 224 224 223 221 218 220 221 223 222 226 231 235 238 242 242 238 240 238 236 238 240 242 245 247 250 236 244 249 251 251 256 263 268 274
249 232 239 232 230 228 228 226 226 226 225 225 223 221 222 222 224 225 227 228 231 235 239 243 239 238 239 238 239 239 240 242 246 247 251 245 247 252 253 254 256 260 263
240 229 242 247 234 232 229 229 228 228 227 226 225 224 224 225 226 227 228 230 233 235 236 239 241 239 238 239 239 238 237 240 243 246 248 249 245 249 253 253 251 252 256
249 242 241 240 234 237 235 232 232 232 230 228 229 227 226 227 227 227 228 230 231 234 236 240 242 244 245 241 236 234 233 236 239 243 247 246 241 245 245 247 246 248 254
259 241 239 233 241 242 235 237 236 235 235 234 233 232 231 231 231 231 231 232 232 232 230 231 237 246 251 243 237 236 232 232 234 238 241 244 242 239 239 244 247 248 252
244 248 245 245 232 239 240 238 241 238 236 235 235 238 238 237 235 235 236 236 235 233 230 227 228 234 244 239 238 236 233 234 235 240 239 241 240 244 242 244 248 250 253
238 240 239 246 247 234 232 237 239 240 237 237 236 240 239 240 239 237 238 238 240 234 235 231 232 240 242 242 240 236 232 225 225 232 232 237 238 242 241 243 247 248 249
256 241 244 242 243 244 250 243 238 234 238 238 243 242 240 244 236 235 237 238 247 248 247 246 239 241 241 242 248 237 235 235 234 232 230 231 233 236 237 242 242 245 247
277 263 250 245 248 249 244 250 247 251 241 240 241 244 248 250 248 245 241 242 257 248 245 243 244 248 252 249 250 250 243 236 235 236 233 234 235 234 235 236 238 243 242
270 270 262 257 249 249 247 251 252 248 247 242 241 243 245 249 235 243 231 241 239 241 246 241 239 242 247 246 243 240 232 229 228 229 229 233 233 231 229 234 237 238 243
277 269 267 265 259 253 255 248 251 253 249 247 249 250 242 240 238 240 233 237 234 242 238 234 234 240 242 241 240 233 235 229 227 227 228 229 231 229 231 235 231 233 242